Back to catalog

SL-14 DEB

AlivePO
NORAD 45321·DEBRIS·🇷🇺 Russia

Launched Aug 15, 1991 from Plesetsk Cosmodrome

Loading…

Next Passes (next 24 hours)

TLE

FreshSource: Space-Track

Epoch: Sep 14, 2026, 21:26 UTC

1 45321U 91056BK  26257.89314565  .00000084  00000-0  18026-3 0  9991
2 45321  82.5576  70.8305 0022333 227.3902 132.5339 13.19510357315203

Track SL-14 DEB in real time with AllMySat

Download on the App Store